Belen, NM

9:18 AM MST on January 22, 2018 (GMT -0700)
Belen

Weather History for KE80 - November, 2012

Change the Weather History Date:

Friday, November 23, 2012

  Actual Average (KABQ) Record (KABQ)
Temperature  
Mean Temperature 43 °F -  
Max Temperature 56 °F 53 °F 74 °F (1909)
Min Temperature 30 °F 29 °F 10 °F (1931)
Degree Days  
Heating Degree Days 22    
Moisture  
Dew Point 21 °F    
Average Humidity 44    
Maximum Humidity 67    
Minimum Humidity 28    
Precipitation  
Precipitation 0.00 in - - ()
Sea Level Pressure  
Sea Level Pressure 30.44 in    
Wind  
Wind Speed 4 mph (NW)    
Max Wind Speed 13 mph    
Max Gust Speed 12 mph    
Visibility 10 miles    
Events      
Averages and records for this station are not official NWS values.
T = Trace of Precipitation, MM = Missing Value Source: NWS Daily Summary

Daily Weather History Graph

Daily Weather History Graph

Search for Another Location

Airport or City:

Trip Planner

Search our weather history database for the weather conditions in past years. The results will help you decide how hot, cold, wet, or windy it might be!

Date:

Astronomy

Nov. 23, 2012 Rise Set
Actual Time 6:49 AM MST 4:58 PM MST
Civil Twilight 6:22 AM MST 5:25 PM MST
Nautical Twilight 5:51 AM MST 5:56 PM MST
Astronomical Twilight 5:20 AM MST 6:26 PM MST
Moon 2:05 PM MST (11/23) 2:20 AM MST (11/23)
Length of Visible Light 11h 03m
Length of Day
10h 09m
Waxing Gibbous, 80% of the Moon is Illuminated
Nov 23
Waxing Gibbous
Nov 28
Full
Dec 6
Last Quarter
Dec 13
New
Dec 19
First Quarter

Hourly Weather History & Observations

Time (MST) Temp. Windchill Dew Point Humidity Pressure Visibility Wind Dir Wind Speed Gust Speed Precip Events Conditions
12:15 AM 37.2 °F - 17.2 °F 44% 30.36 in 10.0 mi Calm Calm - N/A   Clear
12:35 AM 35.2 °F - 17.2 °F 48% 30.36 in 10.0 mi Calm Calm - N/A   Clear
12:55 AM 32.0 °F 25.6 °F 16.5 °F 53% 30.38 in 10.0 mi South 6.9 mph - N/A   Clear
1:15 AM 38.1 °F 31.7 °F 17.4 °F 43% 30.38 in 10.0 mi SW 9.2 mph - N/A   Clear
1:35 AM 39.6 °F 32.5 °F 17.4 °F 41% 30.38 in 10.0 mi West 11.5 mph - N/A   Clear
1:55 AM 37.6 °F 29.6 °F 18.1 °F 45% 30.39 in 10.0 mi West 12.7 mph - N/A   Clear
2:15 AM 39.6 °F 34.0 °F 18.0 °F 42% 30.39 in 10.0 mi West 8.1 mph 11.5 mph N/A   Clear
2:35 AM 40.1 °F 33.2 °F 18.5 °F 42% 30.39 in 10.0 mi West 11.5 mph - N/A   Clear
2:55 AM 39.6 °F 32.1 °F 19.9 °F 45% 30.39 in 10.0 mi West 12.7 mph - N/A   Clear
3:15 AM 38.7 °F 31.4 °F 20.8 °F 49% 30.40 in 10.0 mi West 11.5 mph - N/A   Clear
3:35 AM 36.7 °F 30.5 °F 22.3 °F 56% 30.40 in 10.0 mi WSW 8.1 mph - N/A   Clear
3:55 AM 34.0 °F 31.0 °F 21.7 °F 61% 30.41 in 10.0 mi WNW 3.5 mph - N/A   Clear
4:15 AM 34.2 °F - 21.7 °F 60% 30.41 in 10.0 mi Calm Calm - N/A   Clear
4:35 AM 33.8 °F 30.8 °F 21.9 °F 62% 30.41 in 10.0 mi North 3.5 mph - N/A   Clear
4:55 AM 30.6 °F 27.1 °F 19.6 °F 64% 30.43 in 10.0 mi NE 3.5 mph - N/A   Clear
5:15 AM 31.1 °F 26.4 °F 19.9 °F 63% 30.43 in 10.0 mi NNE 4.6 mph - N/A   Clear
5:35 AM 31.5 °F 25.8 °F 20.1 °F 63% 30.44 in 10.0 mi NE 5.8 mph - N/A   Clear
5:55 AM 32.5 °F 28.1 °F 21.9 °F 65% 30.45 in 10.0 mi North 4.6 mph - N/A   Clear
6:15 AM 30.2 °F - 20.3 °F 67% 30.46 in 10.0 mi Calm Calm - N/A   Clear
6:35 AM 30.9 °F 24.3 °F 20.7 °F 66% 30.47 in 10.0 mi WNW 6.9 mph - N/A   Clear
6:55 AM 31.1 °F 25.4 °F 20.5 °F 65% 30.48 in 10.0 mi WNW 5.8 mph - N/A   Clear
7:15 AM 30.0 °F 26.5 °F 19.8 °F 66% 30.48 in 10.0 mi WNW 3.5 mph - N/A   Clear
7:35 AM 31.8 °F 28.5 °F 20.3 °F 62% 30.50 in 10.0 mi WNW 3.5 mph - N/A   Clear
7:55 AM 36.0 °F 33.3 °F 21.9 °F 57% 30.51 in 10.0 mi North 3.5 mph - N/A   Clear
8:15 AM 38.5 °F 36.1 °F 22.1 °F 52% 30.52 in 10.0 mi NNW 3.5 mph - N/A   Clear
8:35 AM 40.5 °F 35.1 °F 22.8 °F 49% 30.53 in 10.0 mi NW 8.1 mph - N/A   Clear
8:55 AM 42.6 °F 36.3 °F 24.8 °F 49% 30.53 in 10.0 mi NW 11.5 mph - N/A   Clear
9:15 AM 44.2 °F 39.2 °F 24.4 °F 46% 30.53 in 10.0 mi WNW 9.2 mph - N/A   Clear
9:35 AM 46.4 °F 41.9 °F 24.4 °F 42% 30.54 in 10.0 mi WNW 9.2 mph - N/A   Clear
9:55 AM 48.0 °F - 24.4 °F 40% 30.54 in 10.0 mi WNW 9.2 mph - N/A   Clear
10:15 AM 49.6 °F - 24.6 °F 38% 30.54 in 10.0 mi WNW 9.2 mph - N/A   Clear
10:35 AM 50.2 °F - 24.6 °F 37% 30.53 in 10.0 mi WNW 9.2 mph - N/A   Clear
10:55 AM 51.4 °F - 24.6 °F 35% 30.53 in 10.0 mi West 6.9 mph - N/A   Clear
11:15 AM 51.1 °F - 24.3 °F 35% 30.52 in 10.0 mi West 4.6 mph - N/A   Clear
11:35 AM 52.0 °F - 24.3 °F 34% 30.51 in 10.0 mi WNW 4.6 mph - N/A   Clear
11:55 AM 52.7 °F - 24.4 °F 33% 30.50 in 10.0 mi SSW 3.5 mph - N/A   Clear
12:15 PM 53.4 °F - 24.6 °F 33% 30.49 in 10.0 mi Calm Calm - N/A   Clear
12:35 PM 54.0 °F - 24.3 °F 32% 30.49 in 10.0 mi Calm Calm - N/A   Clear
12:55 PM 54.5 °F - 24.3 °F 31% 30.48 in 10.0 mi Calm Calm - N/A   Clear
1:15 PM 54.7 °F - 24.3 °F 31% 30.47 in 10.0 mi East 4.6 mph - N/A   Clear
1:35 PM 54.9 °F - 24.1 °F 30% 30.46 in 10.0 mi Calm Calm - N/A   Clear
1:55 PM 55.8 °F - 24.1 °F 29% 30.45 in 10.0 mi Calm Calm - N/A   Clear
2:15 PM 54.9 °F - 23.9 °F 30% 30.44 in 10.0 mi Calm Calm - N/A   Clear
2:35 PM 55.9 °F - 23.9 °F 29% 30.43 in 10.0 mi Calm Calm - N/A   Clear
2:55 PM 56.5 °F - 23.9 °F 28% 30.42 in 10.0 mi Calm Calm - N/A   Clear
3:15 PM 56.7 °F - 23.5 °F 28% 30.42 in 10.0 mi SE 4.6 mph - N/A   Clear
3:35 PM 56.7 °F - 23.5 °F 28% 30.42 in 10.0 mi Calm Calm - N/A   Clear
3:55 PM 56.1 °F - 23.0 °F 28% 30.41 in 10.0 mi Calm Calm - N/A   Clear
4:15 PM 56.1 °F - 23.0 °F 28% 30.42 in 10.0 mi Calm Calm - N/A   Clear
4:35 PM 55.4 °F - 22.8 °F 28% 30.41 in 10.0 mi Calm Calm - N/A   Clear
4:55 PM 53.1 °F - 22.3 °F 30% 30.41 in 10.0 mi Calm Calm - N/A   Clear
5:15 PM 52.5 °F - 22.6 °F 31% 30.41 in 10.0 mi Calm Calm - N/A   Clear
5:35 PM 49.8 °F - 21.6 °F 33% 30.42 in 10.0 mi NE 4.6 mph - N/A   Clear
5:55 PM 47.7 °F - 21.4 °F 35% 30.42 in 10.0 mi North 4.6 mph - N/A   Clear
6:15 PM 44.4 °F 42.0 °F 19.6 °F 37% 30.42 in 10.0 mi North 4.6 mph - N/A   Clear
6:35 PM 40.1 °F 35.3 °F 18.3 °F 42% 30.42 in 10.0 mi North 6.9 mph - N/A   Clear
6:55 PM 40.3 °F 38.2 °F 18.0 °F 41% 30.42 in 10.0 mi North 3.5 mph - N/A   Clear
7:15 PM 41.0 °F 39.0 °F 19.8 °F 43% 30.42 in 10.0 mi North 3.5 mph - N/A   Clear
7:35 PM 40.8 °F 38.8 °F 18.9 °F 41% 30.42 in 10.0 mi NNE 3.5 mph - N/A   Clear
7:55 PM 39.7 °F 37.6 °F 19.2 °F 44% 30.42 in 10.0 mi North 3.5 mph - N/A   Clear
8:15 PM 40.1 °F - 19.8 °F 44% 30.42 in 10.0 mi Calm Calm - N/A   Clear
8:35 PM 38.1 °F 34.6 °F 18.7 °F 46% 30.42 in 10.0 mi NE 4.6 mph - N/A   Clear
8:55 PM 35.1 °F - 16.5 °F 47% 30.42 in 10.0 mi Calm Calm - N/A   Clear
9:15 PM 35.4 °F - 18.5 °F 50% 30.42 in 10.0 mi Calm Calm - N/A   Clear
9:35 PM 34.0 °F - 16.7 °F 49% 30.42 in 10.0 mi Calm Calm - N/A   Clear
9:55 PM 34.5 °F - 16.5 °F 48% 30.42 in 10.0 mi Calm Calm - N/A   Clear
10:15 PM 35.4 °F - 16.7 °F 47% 30.42 in 10.0 mi Calm Calm - N/A   Clear
10:35 PM 35.2 °F - 17.6 °F 49% 30.42 in 10.0 mi Calm Calm - N/A   Clear
10:55 PM 32.4 °F - 12.4 °F 44% 30.42 in 10.0 mi Calm Calm - N/A   Clear
11:15 PM 32.2 °F 25.8 °F 17.2 °F 54% 30.42 in 10.0 mi NW 6.9 mph - N/A   Clear
11:35 PM 31.5 °F 28.1 °F 16.2 °F 53% 30.41 in 10.0 mi NNE 3.5 mph - N/A   Clear
11:55 PM 31.1 °F 27.7 °F 16.7 °F 55% 30.41 in 10.0 mi NNW 3.5 mph - N/A   Clear